SP3VBV-2 Weather Reports


time (UTC)temp
C
wind
direction
speed
KPH
gust
KPH
rain 1hr
cm
rain 24hr
cm
rain mn
cm
humidity
%
barometer
mb
20260905164918 18 0.0 0.0 0.00 0.00 0.00 51 1016.2
20260905163918 18 0.0 0.0 0.00 0.00 0.00 50 1016.0
20260905162918 18 0.0 0.0 0.00 0.00 0.00 51 1015.9
20260905161920 18 0.0 0.0 0.00 0.00 0.00 51 1015.8
20260905155918 18 0.0 0.0 0.00 0.00 0.00 51 1015.6
20260905154918 19 0.0 0.0 0.00 0.00 0.00 50 1015.5
20260905153918 19 0.0 0.0 0.00 0.00 0.00 51 1015.5
20260905152918 19 0.0 0.0 0.00 0.00 0.00 49 1015.5
20260905151918 20 0.0 0.0 0.00 0.00 0.00 50 1015.4
20260905150918 19 0.0 0.0 0.00 0.00 0.00 50 1015.5
20260905145918 20 0.0 0.0 0.00 0.00 0.00 49 1015.3
20260905144918 19 0.0 0.0 0.00 0.00 0.00 52 1015.4
20260905143918 20 0.0 0.0 0.00 0.00 0.00 53 1015.3
20260905142918 19 0.0 0.0 0.00 0.00 0.00 53 1015.3
20260905141918 19 0.0 0.0 0.00 0.00 0.00 51 1015.5
20260905140918 20 0.0 0.0 0.00 0.00 0.00 50 1015.5
20260905135918 20 0.0 0.0 0.00 0.00 0.00 51 1015.5
20260905134918 20 0.0 0.0 0.00 0.00 0.00 51 1015.4
20260905133918 20 0.0 0.0 0.00 0.00 0.00 53 1015.4
20260905132918 20 0.0 0.0 0.00 0.00 0.00 52 1015.5
20260905131918 20 0.0 0.0 0.00 0.00 0.00 50 1015.3
20260905130918 20 0.0 0.0 0.00 0.00 0.00 52 1015.5
20260905125918 18 0.0 0.0 0.00 0.00 0.00 57 1015.7
20260905124918 19 0.0 0.0 0.00 0.00 0.00 55 1015.5
20260905123918 18 0.0 0.0 0.00 0.00 0.00 51 1015.8
20260905122918 19 0.0 0.0 0.00 0.00 0.00 57 1015.8
20260905121918 19 0.0 0.0 0.00 0.00 0.00 58 1015.9
20260905120918 18 0.0 0.0 0.00 0.00 0.00 59 1015.9
20260905115918 19 0.0 0.0 0.00 0.00 0.00 57 1016.0
20260905114918 18 0.0 0.0 0.00 0.00 0.00 58 1015.9
20260905113918 19 0.0 0.0 0.00 0.00 0.00 57 1015.9
20260905112918 19 0.0 0.0 0.00 0.00 0.00 59 1016.0
20260905111918 18 0.0 0.0 0.00 0.00 0.00 59 1015.9
20260905110918 19 0.0 0.0 0.00 0.00 0.00 58 1015.8
20260905105918 18 0.0 0.0 0.00 0.00 0.00 60 1015.6
20260905104918 18 0.0 0.0 0.00 0.00 0.00 59 1015.8
20260905103918 18 0.0 0.0 0.00 0.00 0.00 59 1015.7
20260905102918 18 0.0 0.0 0.00 0.00 0.00 62 1015.7
20260905101919 18 0.0 0.0 0.00 0.00 0.00 65 1015.6
20260905095917 18 0.0 0.0 0.00 0.00 0.00 62 1015.5
20260905094917 18 0.0 0.0 0.00 0.00 0.00 64 1015.7
20260905093917 18 0.0 0.0 0.00 0.00 0.00 67 1015.6
20260905092917 18 0.0 0.0 0.00 0.00 0.00 68 1015.6
20260905091917 17 0.0 0.0 0.00 0.00 0.00 70 1015.6
20260905090917 17 0.0 0.0 0.00 0.00 0.00 73 1015.5
20260905085917 17 0.0 0.0 0.00 0.00 0.00 74 1015.5
20260905084917 17 0.0 0.0 0.00 0.00 0.00 80 1015.4
20260905083917 17 0.0 0.0 0.00 0.00 0.00 81 1015.2
20260905082917 17 0.0 0.0 0.00 0.00 0.00 87 1015.2
20260905081917 17 0.0 0.0 0.00 0.00 0.00 92 1015.2
20260905080917 17 0.0 0.0 0.00 0.00 0.00 97 1015.1
20260905075917 16 0.0 0.0 0.00 0.00 0.00 99 1015.0
20260905074917 16 0.0 0.0 0.00 0.00 0.00 10 1014.9
20260905073917 16 0.0 0.0 0.00 0.00 0.00 10 1014.9
20260905072917 16 0.0 0.0 0.00 0.00 0.00 10 1014.9
20260905071917 16 0.0 0.0 0.00 0.00 0.00 10 1014.9
20260905070917 16 0.0 0.0 0.00 0.00 0.00 10 1014.7
20260905065917 15 0.0 0.0 0.00 0.00 0.00 10 1014.6
20260905064917 15 0.0 0.0 0.00 0.00 0.00 10 1014.5
20260905063917 15 0.0 0.0 0.00 0.00 0.00 10 1014.3
20260905062917 15 0.0 0.0 0.00 0.00 0.00 10 1014.2
20260905061917 15 0.0 0.0 0.00 0.00 0.00 10 1014.1
20260905060917 15 0.0 0.0 0.00 0.00 0.00 10 1014.0
20260905055917 15 0.0 0.0 0.00 0.00 0.00 10 1014.1
20260905054917 15 0.0 0.0 0.00 0.00 0.00 10 1014.0
20260905053917 15 0.0 0.0 0.00 0.00 0.00 10 1013.8
20260905052917 15 0.0 0.0 0.00 0.00 0.00 10 1013.8
20260905051917 15 0.0 0.0 0.00 0.00 0.00 10 1013.7
20260905050917 15 0.0 0.0 0.00 0.00 0.00 10 1013.4
20260905045917 15 0.0 0.0 0.00 0.00 0.00 10 1013.3
20260905044917 15 0.0 0.0 0.00 0.00 0.00 10 1013.3
20260905043917 15 0.0 0.0 0.00 0.00 0.00 10 1013.2
20260905042917 15 0.0 0.0 0.00 0.00 0.00 10 1013.1
20260905041917 15 0.0 0.0 0.00 0.00 0.00 10 1012.9
20260905035917 15 0.0 0.0 0.00 0.00 0.00 10 1012.9
20260905034916 15 0.0 0.0 0.00 0.00 0.00 10 1012.7
20260905033916 15 0.0 0.0 0.00 0.00 0.00 10 1012.3
20260905032916 15 0.0 0.0 0.00 0.00 0.00 10 1012.4
20260905031916 15 0.0 0.0 0.00 0.00 0.00 10 1012.4
20260905030916 15 0.0 0.0 0.00 0.00 0.00 10 1012.1
20260905025916 15 0.0 0.0 0.00 0.00 0.00 10 1012.0
20260905024916 15 0.0 0.0 0.00 0.00 0.00 10 1011.9
20260905023916 15 0.0 0.0 0.00 0.00 0.00 10 1011.5
20260905022916 15 0.0 0.0 0.00 0.00 0.00 10 1011.7
20260905021916 15 0.0 0.0 0.00 0.00 0.00 10 1011.8
20260905020916 15 0.0 0.0 0.00 0.00 0.00 10 1011.8
20260905015916 15 0.0 0.0 0.00 0.00 0.00 10 1011.6
20260905014916 15 0.0 0.0 0.00 0.00 0.00 10 1011.1
20260905013916 15 0.0 0.0 0.00 0.00 0.00 10 1010.5
20260905012916 15 0.0 0.0 0.00 0.00 0.00 10 1011.5
20260905011916 15 0.0 0.0 0.00 0.00 0.00 10 1011.5
20260905010916 15 0.0 0.0 0.00 0.00 0.00 10 1011.5
20260905005916 15 0.0 0.0 0.00 0.00 0.00 10 1011.4
20260905004916 15 0.0 0.0 0.00 0.00 0.00 10 1011.2
20260905003917 15 0.0 0.0 0.00 0.00 0.00 10 1010.9
20260905002916 15 0.0 0.0 0.00 0.00 0.00 10 1010.8
20260905001916 15 0.0 0.0 0.00 0.00 0.00 10 1011.3
20260905000916 15 0.0 0.0 0.00 0.00 0.00 10 1011.0
20260904235916 15 0.0 0.0 0.00 0.00 0.00 10 1010.6
20260904234916 15 0.0 0.0 0.00 0.00 0.00 10 1010.6
20260904233916 15 0.0 0.0 0.00 0.00 0.00 10 1010.8
20260904232916 15 0.0 0.0 0.00 0.00 0.00 10 1010.1
20260904231916 15 0.0 0.0 0.00 0.00 0.00 10 1010.0
20260904230916 15 0.0 0.0 0.00 0.00 0.00 10 1010.0
20260904225916 15 0.0 0.0 0.00 0.00 0.00 10 1010.2
20260904224916 15 0.0 0.0 0.00 0.00 0.00 10 1009.8
20260904223916 15 0.0 0.0 0.00 0.00 0.00 10 1009.5
20260904222917 15 0.0 0.0 0.00 0.00 0.00 10 1009.9
20260904221916 15 0.0 0.0 0.00 0.00 0.00 10 1009.7
20260904215915 15 0.0 0.0 0.00 0.00 0.00 10 1009.1
20260904214915 16 0.0 0.0 0.00 0.00 0.00 10 1009.3
20260904213915 16 0.0 0.0 0.00 0.00 0.00 10 1009.5
20260904212915 17 0.0 0.0 0.00 0.00 0.00 10 1009.6
20260904211915 17 0.0 0.0 0.00 0.00 0.00 10 1009.5
20260904210915 17 0.0 0.0 0.00 0.00 0.00 10 1009.2
20260904205915 17 0.0 0.0 0.00 0.00 0.00 10 1009.0
20260904204915 17 0.0 0.0 0.00 0.00 0.00 10 1009.1
20260904203915 17 0.0 0.0 0.00 0.00 0.00 10 1009.0
20260904202915 17 0.0 0.0 0.00 0.00 0.00 10 1009.2
20260904201915 18 0.0 0.0 0.00 0.00 0.00 10 1009.3
20260904200915 20 0.0 0.0 0.00 0.00 0.00 87 1008.0
20260904195915 20 0.0 0.0 0.00 0.00 0.00 90 1008.1
20260904194915 21 0.0 0.0 0.00 0.00 0.00 97 1008.1
20260904193915 22 0.0 0.0 0.00 0.00 0.00 81 1007.7
20260904192915 23 0.0 0.0 0.00 0.00 0.00 68 1007.2
20260904191915 23 0.0 0.0 0.00 0.00 0.00 63 1006.6
20260904190915 23 0.0 0.0 0.00 0.00 0.00 64 1006.3
20260904185915 23 0.0 0.0 0.00 0.00 0.00 65 1006.3
20260904184915 23 0.0 0.0 0.00 0.00 0.00 65 1006.3
20260904183915 22 0.0 0.0 0.00 0.00 0.00 66 1006.2
20260904182915 23 0.0 0.0 0.00 0.00 0.00 66 1006.2
20260904181915 23 0.0 0.0 0.00 0.00 0.00 66 1006.3
20260904180915 23 0.0 0.0 0.00 0.00 0.00 66 1006.4
20260904175915 23 0.0 0.0 0.00 0.00 0.00 65 1006.7
20260904174915 23 0.0 0.0 0.00 0.00 0.00 65 1006.8
20260904173915 23 0.0 0.0 0.00 0.00 0.00 64 1007.1
20260904172915 23 0.0 0.0 0.00 0.00 0.00 65 1007.2
20260904171915 23 0.0 0.0 0.00 0.00 0.00 66 1007.2
20260904170915 23 0.0 0.0 0.00 0.00 0.00 65 1007.3
20260904165915 23 0.0 0.0 0.00 0.00 0.00 65 1007.5